Flag for Finland Weather past 2 weeks in Kotka, Finland

Now
86 °F

Sunny.


Feels Like: 84 °F
Forecast: 67 / 80 °F
Wind: 6 mph from North

Location: Utti

Current Time: Jul 26, 2014 at 5:03:44 PM

Latest Report: Jul 26, 2014 at 4:20 PM


Visibility: 10 mi

Pressure: 30.09 "Hg

Humidity: 33%

Dew point: 54 °F

Location of KotkaLocation

Historic Weather in Kotka — Graph

°F

Kotka temperature yesterday

Maximum temperature yesterday: 86 °F (at 4:20 PM)
Minimum temperature yesterday: 59 °F (at 3:50 AM)
Average temperature yesterday: 75 °F

Past Weeks' High & Low Weather Summary

 TemperatureHumidityPressure
High88 °F (Jul 26, 3:20 PM)100% (Jul 15, 3:50 AM)30.24 "Hg (Jul 15, 3:50 AM)
Low52 °F (Jul 12, 3:50 AM)27% (Jul 23, 5:20 PM)29.89 "Hg (Jul 13, 8:20 PM)
Average70 °F62%30.09 "Hg
* Reported Jul 11 3:20 PM — Jul 26 3:50 PM, Kotka, Weather by CustomWeather, © 2014

Note: Actual official high and low records may vary slightly from our data, if they occured in-between our weather recording intervals... More about our weather records

Advertising

Kotka weather history for previous 24 hours

 ConditionsComfort  
Time TempWeatherWind HumidityBarometerVisibility
3:50 PM
Jul 26
88 °FPassing clouds.7 mph31%30.09 "HgN/A
3:20 PM88 °FPassing clouds.7 mph31%30.09 "HgN/A
2:50 PM86 °FPassing clouds.6 mph33%30.12 "HgN/A
2:20 PM86 °FPassing clouds.7 mph35%30.12 "HgN/A
1:50 PM86 °FPassing clouds.7 mph33%30.12 "HgN/A
1:20 PM86 °FPassing clouds.6 mph35%30.12 "HgN/A
12:50 PM86 °FPassing clouds.8 mph33%30.12 "HgN/A
12:20 PM86 °FPassing clouds.7 mph33%30.12 "HgN/A
11:50 AM84 °FPassing clouds.7 mph40%30.12 "HgN/A
11:20 AM84 °FPassing clouds.7 mph37%30.12 "HgN/A
10:50 AM82 °FPassing clouds.6 mph42%30.12 "HgN/A
10:20 AM82 °FSunny.3 mph40%30.12 "Hg10 mi
9:50 AM81 °FPassing clouds.5 mph48%30.12 "HgN/A
9:20 AM81 °FSunny.No wind51%30.12 "Hg10 mi
8:50 AM77 °FSunny.No wind57%30.12 "Hg10 mi
8:20 AM75 °FSunny.2 mph65%30.12 "Hg10 mi
7:50 AM75 °FSunny.No wind61%30.12 "Hg10 mi
7:20 AM70 °FSunny.No wind73%30.12 "Hg10 mi
6:50 AM72 °FSunny.No wind73%30.12 "Hg10 mi
6:20 AM68 °FSunny.No wind78%30.12 "Hg10 mi
5:50 AM66 °FSunny.No wind78%30.12 "Hg10 mi
5:20 AM64 °FClear.No wind78%30.12 "Hg10 mi
4:50 AM64 °FClear.No wind83%30.12 "Hg10 mi
4:20 AM66 °FClear.No wind78%30.12 "Hg10 mi
3:50 AM66 °FClear.1 mph73%30.12 "Hg10 mi
3:20 AM70 °FClear.3 mph69%30.12 "Hg10 mi
2:50 AM70 °FClear.2 mph69%30.12 "Hg10 mi
2:20 AM72 °FClear.3 mph61%30.12 "Hg10 mi
1:50 AM70 °FClear.3 mph64%30.12 "Hg10 mi
1:20 AM72 °FClear.3 mph57%30.12 "Hg10 mi
12:50 AM72 °FClear.2 mph57%30.12 "Hg10 mi
12:20 AM72 °FClear.5 mph57%30.12 "Hg10 mi
11:50 PM
Jul 25
73 °FClear.5 mph57%30.12 "Hg10 mi
11:20 PM73 °FClear.2 mph57%30.12 "Hg10 mi
10:50 PM75 °FSunny.3 mph54%30.12 "Hg10 mi
10:20 PM75 °FSunny.5 mph57%30.12 "Hg10 mi
9:50 PM77 °FSunny.7 mph51%30.12 "Hg10 mi
9:20 PM79 °FSunny.7 mph48%30.12 "Hg10 mi
8:50 PM81 °FSunny.8 mph45%30.09 "Hg10 mi
8:20 PM82 °FPassing clouds.8 mph42%30.09 "HgN/A
7:50 PM82 °FPassing clouds.6 mph42%30.09 "HgN/A
7:20 PM84 °FSunny.3 mph35%30.09 "Hg10 mi
6:50 PM84 °FPassing clouds.6 mph35%30.09 "HgN/A
6:20 PM86 °FPassing clouds.8 mph31%30.12 "HgN/A
5:50 PM86 °FPassing clouds.8 mph31%30.12 "HgN/A
5:20 PM86 °FPassing clouds.7 mph31%30.12 "HgN/A
Weather by CustomWeather, © 2014

See weather overviewHow to use our weather pages